Simultaneous Nadir Overpasses (SNOs) Predictions

Prediction of SNOs between AQUA and NOAA-19 Satellite Orbit:

Table of predicted SNOs for the next 14.0 days since TLE Epoch: 11/13/2011
Index Date Time (AQUA) AQUA Lat,Lon NOAA-19 Lat,Lon Distance(km) Time Diff (sec)
1 11/14/2011 07:00:40 46.31, -72.74 46.32, -72.73 0.90 19
2 11/16/2011 10:58:36 -35.25, 44.94 -35.25, 44.93 0.43 70
3 11/18/2011 15:40:27 -43.68, -23.46 -43.67, -23.47 0.56 31
4 11/20/2011 19:37:19 35.89, 95.40 35.90, 95.41 1.31 73
5 11/23/2011 00:19:15 43.92, 26.91 43.92, 26.91 0.20 32
6 11/25/2011 05:01:19 51.37, -41.19 51.37, -41.17 1.17 10




NCC Satellite Simultaneous Nadir Overpasses (SNOs) Prediction Service
